#timestamp,LO_Frequency,Hit,StdDev 
1516888815.3,286047001.7,N
1516888835.2,286047002.0,N
1516888855.9,286047002.4,N
1516888875.7,286047000.5,N
1516888895.6,286047001.5,N
1516888915.4,286047003.1,N
1516888935.3,286047005.3,Y
1516888955.1,286047004.0,P
1516888956.0,286047004.0,N
1516888975.8,286047003.9,N
1516888995.7,286047004.1,Y
1516889015.5,286046998.7,P
1516889035.4,286046999.1,N
1516889055.2,286046999.3,N
1516889075.0,286046998.9,N
1516889075.9,286046998.9,N
1516889095.8,286046997.0,N
1516889115.6,286046998.4,N
1516889135.4,286046999.6,N
1516889155.3,286046997.4,N
1516889175.1,286046997.2,N
1516889195.9,286046997.0,N
1516889215.7,286046997.3,N
1516889235.5,286046999.5,N
1516889255.4,286046997.1,N
1516889275.2,286047001.2,N
1516889295.1,286046999.4,N
1516889296.0,286046999.4,N
1516889315.8,286047001.0,N
1516889335.6,286046998.7,N
1516889355.5,286046996.8,N
1516889375.3,286046999.2,N
1516889395.1,286046997.5,N
1516889415.9,286046995.5,N
1516889435.7,286046995.5,N
1516889455.6,286046996.0,N
1516889475.4,286046997.8,N
1516889495.2,286046997.4,N
1516889515.1,286046997.7,N
1516889516.0,286046997.7,N
1516889535.8,286046996.9,N
1516889555.6,286046997.2,N
1516889575.5,286046996.7,N
1516889595.3,286046996.6,N
1516889615.2,286046997.4,N
1516889635.9,286046997.9,N
1516889655.7,286046999.6,N
1516889675.6,286046996.7,N
1516889695.4,286046999.6,N
1516889715.2,286046999.4,N
1516889735.1,286046998.9,N
1516889736.0,286046998.9,N
1516889755.8,286046998.6,N
1516889775.7,286046999.2,N
1516889795.5,286046996.7,N
1516889815.3,286046997.7,N
1516889835.2,286046996.9,N
1516889855.0,286046996.8,N
1516889855.9,286046996.8,N
1516889875.8,286046997.5,N
1516889895.6,286046997.7,N
1516889915.5,286046994.9,Y
1516889935.3,286046999.4,P
1516889955.1,286046999.1,N
1516889975.9,286046996.7,P
1516889995.7,286046996.5,Y
1516890015.6,286047000.0,P
1516890035.4,286047000.2,N
1516890085.3,286047000.5,E
1516890095.2,286047000.8,N
1516890115.0,286046998.9,P
1516890115.9,286046998.9,N
1516890135.8,286046998.9,N
1516890155.6,286046998.3,N
1516890175.4,286046998.9,N
1516890195.3,286046996.6,Y
1516890215.1,286046998.2,P
1516890235.9,286046999.9,N
1516890255.7,286047000.1,N
1516890275.5,286047002.1,N
1516890295.4,286047001.3,N
1516890315.2,286047004.0,Y
1516890335.1,286047003.4,P
1516890336.0,286047003.4,N
1516890355.8,286047003.8,N
1516890375.6,286047003.1,N
1516890395.5,286047007.6,Y
1516890415.3,286047001.9,P
1516890435.2,286047002.6,P
1516890455.9,286047000.8,N
1516890475.7,286046998.4,N
1516890495.6,286046999.3,N
1516890515.4,286046999.0,N
1516890535.2,286046999.5,N
1516890555.1,286046999.6,N
1516890556.0,286046999.6,N
1516890575.8,286046998.4,N
1516890595.7,286046998.8,N
1516890615.5,286046998.8,N
1516890635.4,286046998.1,N
1516890655.2,286046998.9,N
1516890675.0,286047001.2,N
1516890675.9,286047001.2,N
1516890695.8,286046999.3,N
1516890715.6,286046999.6,N
1516890735.4,286046996.8,N
1516890755.3,286046996.8,N
1516890775.1,286046997.2,N
1516890795.9,286046997.1,N
1516890815.7,286046999.5,N
1516890835.5,286046998.7,N
1516890855.4,286046997.7,N
1516890875.2,286046997.0,N
1516890895.0,286046996.5,N
1516890895.9,286046996.5,N
1516890915.8,286047001.1,N
1516890935.6,286047000.9,N
1516890955.5,286047000.0,N
1516890975.3,286046998.2,N
1516890995.1,286047002.7,N
1516891015.9,286047002.1,N
1516891035.7,286046998.6,N
1516891055.5,286046998.6,N
1516891075.4,286047000.6,N
1516891095.2,286046998.7,N
1516891115.1,286047001.0,N
1516891116.0,286047001.0,N
1516891135.8,286046998.6,N
1516891155.6,286047001.2,N
1516891175.5,286047002.8,N
1516891195.3,286047000.5,N
1516891215.2,286047001.9,N
1516891235.9,286047002.0,N
1516891255.7,286047002.6,N
1516891275.6,286047000.1,N
1516891295.4,286047002.5,N
1516891315.2,286047000.1,N
1516891335.1,286046998.9,N
1516891336.0,286046998.9,N
1516891355.8,286047001.1,N
1516891375.7,286047000.1,N
1516891395.5,286047002.1,N
1516891415.3,286047002.3,N
1516891435.2,286047000.0,N
1516891455.0,286047001.0,N
1516891455.9,286047001.0,N
1516891475.7,286047000.4,N
1516891495.6,286046999.8,N
1516891515.4,286047000.3,N
1516891535.3,286046998.8,N
1516891555.1,286046999.2,N
1516891556.0,286046999.2,N
1516891575.8,286046999.1,N
1516891595.7,286047001.0,N
1516891615.5,286047000.2,N
1516891635.3,286047002.3,N
1516891655.2,286047002.7,N
1516891675.0,286047000.6,N
1516891675.9,286047000.6,N
1516891695.8,286046998.4,N
1516891715.6,286046998.2,N
1516891735.4,286046998.1,N
1516891755.3,286047001.0,N
1516891775.1,286047000.2,N
1516891795.9,286047002.6,N
1516891815.7,286047002.3,N
1516891835.5,286047002.0,N
1516891855.4,286047000.1,N
1516891875.2,286047000.2,N
1516891895.0,286046999.8,N
1516891895.9,286046999.8,N
1516891915.8,286047000.4,N
1516891935.6,286046999.7,N
1516891955.5,286047002.8,N
1516891975.3,286047002.3,N
1516891995.1,286046999.9,N
1516892015.9,286047000.3,N
1516892035.7,286047000.3,N
1516892055.5,286047002.4,N
1516892075.4,286047001.0,N
1516892095.2,286047001.2,N
1516892115.1,286047001.2,N
1516892116.0,286047001.2,N
1516892135.8,286047002.1,N
1516892155.6,286047004.3,Y
1516892175.5,286047000.9,P
1516892195.3,286046998.3,P
1516892215.2,286046998.6,N
1516892235.9,286047001.2,N
1516892255.7,286046998.2,N
1516892275.6,286047001.1,N
1516892295.4,286047000.5,N
1516892315.2,286046999.0,N
1516892335.1,286047000.0,N
1516892336.0,286047000.0,N
1516892355.8,286047000.5,N
1516892375.7,286047002.6,N
1516892395.5,286047002.3,N
